CW9585 Weather Reports


Display with metric or nautical units.
time (UTC)temp
F
wind
direction
speed
MPH
gust
MPH
rain 1hr
in
rain 24hr
in
rain mn
in
humidity
%
barometer
mb
20260905185705 69 237 4.0 10.0 0.00 0.00 0.00 53 1015.7
20260905185204 69 234 4.0 10.0 0.00 0.00 0.00 52 1015.7
20260905184204 69 176 4.0 9.0 0.00 0.00 0.00 51 1015.8
20260905183704 70 187 4.0 9.0 0.00 0.00 0.00 52 1015.7
20260905183204 71 205 3.0 7.0 0.00 0.00 0.00 53 1015.7
20260905182705 71 240 3.0 7.0 0.00 0.00 0.00 54 1015.6
20260905182205 70 213 4.0 7.0 0.00 0.00 0.00 53 1015.6
20260905181705 70 223 3.0 7.0 0.00 0.00 0.00 54 1015.5
20260905181205 70 204 2.0 6.0 0.00 0.00 0.00 54 1015.5
20260905180704 69 227 2.0 6.0 0.00 0.00 0.00 56 1015.5
20260905180204 68 200 3.0 6.0 0.00 0.00 0.00 56 1015.5
20260905175704 67 151 3.0 6.0 0.00 0.00 0.00 59 1015.5
20260905175205 67 182 2.0 7.0 0.00 0.00 0.00 60 1015.5
20260905174205 67 143 3.0 7.0 0.00 0.00 0.00 62 1015.7
20260905172205 66 113 5.0 9.0 0.00 0.00 0.00 63 1015.5
20260905171204 67 121 4.0 8.0 0.00 0.00 0.00 62 1015.6
20260905170704 67 191 4.0 8.0 0.00 0.00 0.00 60 1015.6
20260905165705 67 134 4.0 8.0 0.00 0.00 0.00 64 1015.5
20260905164704 67 185 4.0 7.0 0.00 0.00 0.00 62 1015.5
20260905164205 67 192 3.0 7.0 0.00 0.00 0.00 64 1015.4
20260905163704 66 117 3.0 7.0 0.00 0.00 0.00 65 1015.4
20260905163204 66 130 3.0 7.0 0.00 0.00 0.00 66 1015.4
20260905162704 66 139 2.0 7.0 0.00 0.00 0.00 68 1015.3
20260905162204 66 120 2.0 5.0 0.00 0.00 0.00 69 1015.2
20260905161704 65 161 2.0 4.0 0.00 0.00 0.00 70 1015.3
20260905161205 65 126 1.0 4.0 0.00 0.00 0.00 71 1015.3
20260905160705 65 127 1.0 3.0 0.00 0.00 0.00 71 1015.3
20260905160204 64 172 1.0 3.0 0.00 0.00 0.00 71 1015.3
20260905155204 63 110 1.0 3.0 0.00 0.00 0.00 72 1015.3
20260905154704 63 100 1.0 3.0 0.00 0.00 0.00 72 1015.3
20260905153705 62 68 0.0 2.0 0.00 0.00 0.00 73 1015.2
20260905153204 61 58 0.0 0.0 0.00 0.00 0.00 74 1015.1
20260905152704 61 106 0.0 0.0 0.00 0.00 0.00 75 1015.1
20260905152205 60 324 0.0 0.0 0.00 0.00 0.00 75 1015.2
20260905151704 59 324 0.0 0.0 0.00 0.00 0.00 75 1015.1
20260905151204 59 324 0.0 4.0 0.00 0.00 0.00 75 1015.1
20260905150704 58 324 1.0 4.0 0.00 0.00 0.00 75 1015.0
20260905150205 58 351 1.0 4.0 0.00 0.00 0.00 76 1015.0
20260905145704 58 334 1.0 5.0 0.00 0.00 0.00 76 1015.0
20260905145204 57 331 2.0 5.0 0.00 0.00 0.00 77 1015.0
20260905144705 57 44 1.0 3.0 0.00 0.00 0.00 77 1014.9
20260905143705 56 5 1.0 3.0 0.00 0.00 0.00 78 1015.0
20260905142204 55 334 1.0 3.0 0.00 0.00 0.00 79 1014.9
20260905141704 55 338 1.0 4.0 0.00 0.00 0.00 79 1014.8
20260905141204 55 329 2.0 5.0 0.00 0.00 0.00 79 1014.8
20260905140704 55 333 2.0 5.0 0.00 0.00 0.00 79 1014.8
20260905140206 55 11 2.0 5.0 0.00 0.00 0.00 79 1014.7
20260905135204 55 15 0.0 0.0 0.00 0.00 0.00 78 1014.6
20260905134704 55 340 0.0 0.0 0.00 0.00 0.00 78 1014.6
20260905134204 55 327 0.0 0.0 0.00 0.00 0.00 78 1014.6
20260905133704 55 327 0.0 0.0 0.00 0.00 0.00 78 1014.6
20260905133205 55 327 0.0 0.0 0.00 0.00 0.00 77 1014.5
20260905132704 55 327 0.0 0.0 0.00 0.00 0.00 77 1014.6
20260905132204 55 327 0.0 3.0 0.00 0.00 0.00 77 1014.4
20260905131704 55 327 1.0 3.0 0.00 0.00 0.00 77 1014.5
20260905131204 56 327 1.0 3.0 0.00 0.00 0.00 76 1014.5
20260905130704 56 327 1.0 3.0 0.00 0.00 0.00 76 1014.6
20260905130204 56 327 1.0 3.0 0.00 0.00 0.00 75 1014.6
20260905125704 56 327 0.0 0.0 0.00 0.00 0.00 75 1014.7
20260905124705 56 327 0.0 2.0 0.00 0.00 0.00 75 1014.6
20260905124205 56 327 0.0 2.0 0.00 0.00 0.00 75 1014.6
20260905123704 56 327 0.0 3.0 0.00 0.00 0.00 75 1014.6
20260905123205 57 327 1.0 4.0 0.00 0.00 0.00 75 1014.7
20260905122704 57 327 1.0 4.0 0.00 0.00 0.00 75 1014.6
20260905122204 57 333 2.0 5.0 0.00 0.00 0.00 75 1014.7
20260905121704 57 309 3.0 5.0 0.00 0.00 0.00 74 1014.7
20260905121204 57 338 3.0 8.0 0.00 0.00 0.00 74 1014.6
20260905120705 57 313 3.0 8.0 0.00 0.00 0.00 74 1014.6
20260905120204 57 5 3.0 8.0 0.00 0.00 0.00 74 1014.6
20260905115704 57 311 3.0 6.0 0.00 0.00 0.00 74 1014.6
20260905115205 57 15 3.0 6.0 0.00 0.00 0.00 74 1014.5
20260905114704 57 9 2.0 6.0 0.00 0.00 0.00 74 1014.5
20260905114205 57 0 2.0 6.0 0.00 0.00 0.00 74 1014.6
20260905113704 57 13 3.0 6.0 0.00 0.00 0.00 74 1014.5
20260905113204 57 5 3.0 6.0 0.00 0.00 0.00 74 1014.5
20260905112704 57 339 2.0 6.0 0.00 0.00 0.00 74 1014.6
20260905112204 57 355 2.0 7.0 0.00 0.00 0.00 74 1014.6
20260905111704 57 19 3.0 7.0 0.00 0.00 0.00 74 1014.6
20260905111205 57 17 3.0 7.0 0.00 0.00 0.00 74 1014.7
20260905110704 57 331 2.0 6.0 0.00 0.00 0.00 75 1014.6
20260905110204 57 330 3.0 6.0 0.00 0.00 0.00 75 1014.6
20260905105704 57 329 3.0 6.0 0.00 0.00 0.00 75 1014.7
20260905105205 56 355 3.0 6.0 0.00 0.00 0.00 76 1014.7
20260905104704 56 0 3.0 6.0 0.00 0.00 0.00 76 1014.6
20260905103705 56 334 2.0 5.0 0.00 0.00 0.00 77 1014.7
20260905103205 56 326 1.0 4.0 0.00 0.00 0.00 77 1014.7
20260905102704 56 336 0.0 0.0 0.00 0.00 0.00 77 1014.7
20260905102204 56 13 0.0 0.0 0.00 0.00 0.00 78 1014.8
20260905101704 56 13 0.0 0.0 0.00 0.00 0.00 78 1014.8
20260905101204 56 13 0.0 0.0 0.00 0.00 0.00 78 1014.8
20260905100704 57 13 0.0 0.0 0.00 0.00 0.00 78 1014.8
20260905100205 57 13 0.0 0.0 0.00 0.00 0.00 78 1014.8
20260905095204 57 13 0.0 0.0 0.00 0.00 0.00 78 1014.8
20260905094704 57 13 0.0 0.0 0.00 0.00 0.00 78 1014.9
20260905094205 57 13 0.0 2.0 0.00 0.00 0.00 77 1015.0
20260905093705 57 13 0.0 3.0 0.00 0.00 0.00 77 1015.0
20260905093204 58 13 1.0 5.0 0.00 0.00 0.00 77 1014.9
20260905092704 58 19 1.0 5.0 0.00 0.00 0.00 77 1014.9
20260905092205 58 17 2.0 5.0 0.00 0.00 0.00 77 1014.9
20260905091704 58 24 2.0 4.0 0.00 0.00 0.00 78 1015.0
20260905091204 58 31 2.0 5.0 0.00 0.00 0.00 78 1015.1
20260905090704 58 342 2.0 5.0 0.00 0.00 0.00 78 1015.1
20260905090204 58 13 2.0 5.0 0.00 0.00 0.00 79 1015.2
20260905085704 58 5 2.0 5.0 0.00 0.00 0.00 79 1015.2
20260905085204 58 345 2.0 4.0 0.00 0.00 0.00 79 1015.2
20260905084704 58 355 2.0 4.0 0.00 0.00 0.00 79 1015.2
20260905084205 58 333 2.0 4.0 0.00 0.00 0.00 80 1015.3
20260905083704 58 355 1.0 4.0 0.00 0.00 0.00 80 1015.3
20260905082704 58 15 2.0 4.0 0.00 0.00 0.00 80 1015.2
20260905082204 58 9 2.0 4.0 0.00 0.00 0.00 80 1015.2
20260905081205 58 26 1.0 3.0 0.00 0.00 0.00 80 1015.2
20260905080205 58 17 0.0 4.0 0.00 0.00 0.00 81 1015.3
20260905075704 59 9 1.0 4.0 0.00 0.01 0.00 81 1015.2
20260905075204 59 9 2.0 4.0 0.00 0.01 0.00 81 1015.3
20260905074205 59 347 1.0 3.0 0.00 0.01 0.00 81 1015.2
20260905073204 59 37 0.0 0.0 0.00 0.02 0.00 82 1015.2
20260905072204 60 37 0.0 0.0 0.00 0.02 0.00 83 1015.2
20260905071204 60 113 0.0 0.0 0.00 0.02 0.00 83 1015.2
20260905070705 60 182 0.0 0.0 0.00 0.02 0.00 82 1015.2
20260905070205 61 182 0.0 0.0 0.00 0.02 0.02 81 1015.1
20260905065705 61 182 0.0 0.0 0.00 0.02 0.02 81 1015.2
20260905065204 61 182 0.0 0.0 0.00 0.02 0.02 81 1015.0
20260905064704 61 182 0.0 0.0 0.00 0.02 0.02 81 1015.1
20260905064204 61 182 0.0 0.0 0.00 0.02 0.02 81 1015.0
20260905063704 61 182 0.0 0.0 0.00 0.02 0.02 81 1015.1
20260905063204 62 182 0.0 0.0 0.00 0.02 0.02 81 1015.0
20260905062205 62 182 0.0 1.0 0.00 0.02 0.02 80 1014.9
20260905061704 62 182 0.0 2.0 0.00 0.02 0.02 80 1014.9
20260905061205 62 182 0.0 4.0 0.00 0.02 0.02 80 1014.9
20260905060704 62 182 1.0 4.0 0.00 0.02 0.02 80 1015.0
20260905060204 62 182 1.0 4.0 0.00 0.02 0.02 79 1015.1
20260905055704 63 182 1.0 4.0 0.00 0.02 0.02 79 1015.0
20260905055204 63 182 1.0 4.0 0.00 0.02 0.02 78 1015.0
20260905054705 63 182 2.0 3.0 0.00 0.02 0.02 78 1015.0
20260905054204 64 157 1.0 3.0 0.00 0.02 0.02 77 1015.0
20260905053704 64 169 0.0 4.0 0.00 0.02 0.02 77 1014.9
20260905053205 64 145 1.0 4.0 0.00 0.02 0.02 76 1015.0
20260905052704 65 183 2.0 3.0 0.00 0.02 0.02 75 1015.0
20260905052204 65 183 1.0 3.0 0.00 0.02 0.02 75 1015.0
20260905051704 65 132 1.0 4.0 0.00 0.02 0.02 74 1014.8
20260905051204 66 179 2.0 4.0 0.00 0.02 0.02 72 1014.8
20260905050704 66 134 1.0 4.0 0.00 0.02 0.02 70 1014.9
20260905050204 66 139 0.0 0.0 0.00 0.02 0.02 62 1014.9
20260905045705 67 287 0.0 0.0 0.00 0.02 0.02 57 1014.8
20260905045204 67 287 0.0 0.0 0.00 0.02 0.02 56 1014.8
20260905044705 67 287 0.0 0.0 0.00 0.02 0.02 56 1014.7
20260905044204 67 287 0.0 0.0 0.00 0.02 0.02 56 1014.7
20260905043204 68 287 0.0 3.0 0.00 0.02 0.02 55 1014.6
20260905042704 68 287 1.0 5.0 0.00 0.02 0.02 54 1014.6
20260905042204 68 287 2.0 5.0 0.00 0.02 0.02 54 1014.6
20260905041704 68 273 1.0 4.0 0.00 0.02 0.02 54 1014.6
20260905041204 69 273 1.0 4.0 0.00 0.02 0.02 53 1014.5
20260905040705 69 303 1.0 3.0 0.00 0.02 0.02 52 1014.4
20260905035705 70 303 0.0 5.0 0.00 0.02 0.02 52 1014.3
20260905034705 70 5 1.0 5.0 0.00 0.02 0.02 51 1014.2
20260905033704 71 20 1.0 5.0 0.00 0.02 0.02 50 1014.0
20260905033205 71 321 1.0 5.0 0.00 0.02 0.02 49 1013.9
20260905032704 71 298 1.0 4.0 0.00 0.02 0.02 49 1013.9
20260905032204 72 318 1.0 4.0 0.00 0.02 0.02 49 1013.9
20260905031705 72 293 1.0 5.0 0.00 0.02 0.02 49 1013.8
20260905030704 73 319 1.0 6.0 0.00 0.02 0.02 49 1013.7
20260905030204 73 313 1.0 6.0 0.00 0.02 0.02 49 1013.7
20260905025704 73 307 1.0 4.0 0.00 0.02 0.02 49 1013.6
20260905025204 73 306 1.0 6.0 0.00 0.02 0.02 48 1013.6
20260905024704 74 311 2.0 8.0 0.00 0.02 0.02 48 1013.5
20260905023704 74 300 4.0 8.0 0.00 0.02 0.02 48 1013.4
20260905023205 74 355 3.0 8.0 0.00 0.02 0.02 48 1013.4
20260905022704 74 309 3.0 8.0 0.00 0.02 0.02 48 1013.4
20260905022204 74 336 2.0 5.0 0.00 0.02 0.02 49 1013.4
20260905021704 75 269 1.0 5.0 0.00 0.02 0.02 54 1013.2
20260905021205 75 232 2.0 5.0 0.00 0.02 0.02 57 1013.3
20260905020705 75 271 2.0 6.0 0.00 0.02 0.02 57 1013.3
20260905020204 75 227 1.0 6.0 0.00 0.02 0.02 56 1013.3
20260905015704 76 219 1.0 6.0 0.00 0.02 0.02 56 1013.2
20260905015204 76 254 2.0 6.0 0.00 0.02 0.02 56 1013.3
20260905014705 76 240 3.0 6.0 0.00 0.02 0.02 55 1013.2
20260905014204 76 252 3.0 8.0 0.00 0.02 0.02 55 1013.3
20260905013704 76 213 3.0 11.0 0.00 0.02 0.02 54 1013.1
20260905012705 77 257 4.0 9.0 0.00 0.02 0.02 52 1013.3
20260905012205 78 267 3.0 9.0 0.00 0.02 0.02 51 1013.2
20260905011704 78 257 4.0 10.0 0.00 0.02 0.02 50 1013.2
20260905011205 78 254 5.0 11.0 0.00 0.02 0.02 51 1013.2
20260905010704 78 245 6.0 13.0 0.00 0.02 0.02 50 1013.2
20260905010205 78 244 6.0 13.0 0.00 0.02 0.02 50 1013.1
20260905005704 78 236 7.0 13.0 0.00 0.02 0.02 50 1013.1
20260905004704 78 276 6.0 15.0 0.00 0.02 0.02 50 1013.0
20260905003704 78 226 7.0 15.0 0.00 0.02 0.02 50 1013.0
20260905003204 78 269 7.0 15.0 0.00 0.02 0.02 50 1013.0
20260905002205 78 225 7.0 15.0 0.00 0.02 0.02 49 1013.1
20260905001204 78 222 7.0 13.0 0.00 0.02 0.02 47 1013.1
20260905000704 78 257 6.0 13.0 0.00 0.02 0.02 47 1013.1
20260905000204 78 241 7.0 13.0 0.00 0.02 0.02 46 1013.1
20260904235705 78 248 6.0 12.0 0.00 0.02 0.02 45 1013.1
20260904235204 79 240 5.0 12.0 0.00 0.02 0.02 45 1013.2
20260904234204 78 264 6.0 14.0 0.00 0.02 0.02 46 1013.2
20260904233204 78 250 6.0 11.0 0.00 0.02 0.02 45 1013.4
20260904232705 78 255 6.0 11.0 0.00 0.02 0.02 46 1013.3
20260904232205 78 313 5.0 11.0 0.00 0.02 0.02 46 1013.4
20260904231704 78 264 5.0 14.0 0.00 0.02 0.02 46 1013.4
20260904231204 78 187 6.0 14.0 0.00 0.02 0.02 46 1013.5
20260904230705 77 236 6.0 14.0 0.00 0.02 0.02 48 1013.5
20260904230204 77 254 6.0 13.0 0.00 0.02 0.02 48 1013.7
20260904225704 76 243 6.0 14.0 0.00 0.02 0.02 49 1013.7
20260904225204 76 238 7.0 14.0 0.00 0.02 0.02 50 1013.8
20260904224704 75 213 8.0 14.0 0.00 0.02 0.02 50 1013.8
20260904224204 75 208 8.0 14.0 0.00 0.02 0.02 53 1013.9
20260904223704 75 215 7.0 14.0 0.00 0.02 0.02 53 1014.0
20260904223205 75 245 7.0 14.0 0.00 0.02 0.02 56 1014.2
20260904221704 74 250 7.0 13.0 0.00 0.02 0.02 55 1014.3
20260904220204 73 165 8.0 16.0 0.00 0.02 0.02 57 1014.5
20260904215705 73 212 7.0 16.0 0.00 0.02 0.02 52 1014.4
20260904215204 73 241 7.0 15.0 0.00 0.02 0.02 53 1014.4
20260904214704 73 184 8.0 14.0 0.00 0.02 0.02 54 1014.4
20260904214204 73 279 7.0 14.0 0.00 0.02 0.02 56 1014.4
20260904213205 73 213 6.0 14.0 0.00 0.02 0.02 55 1014.4
20260904212704 72 207 7.0 15.0 0.00 0.02 0.02 59 1014.4
20260904211704 70 192 7.0 15.0 0.00 0.02 0.02 64 1014.4
20260904211205 70 176 7.0 12.0 0.00 0.02 0.02 66 1014.6
20260904210705 71 215 6.0 12.0 0.00 0.02 0.02 65 1014.6
20260904205704 71 187 7.0 13.0 0.00 0.02 0.02 64 1014.6
20260904204204 71 188 6.0 13.0 0.00 0.02 0.02 66 1014.9
20260904203705 71 188 6.0 13.0 0.00 0.02 0.02 66 1014.8
20260904203204 71 246 6.0 11.0 0.00 0.02 0.02 70 1014.7
20260904202705 71 202 6.0 11.0 0.00 0.02 0.02 71 1014.8
20260904201704 71 198 6.0 11.0 0.00 0.02 0.02 72 1014.8
20260904201204 71 196 5.0 9.0 0.00 0.02 0.02 72 1014.8
20260904200704 70 237 5.0 10.0 0.00 0.02 0.02 74 1014.8
20260904200204 70 215 5.0 10.0 0.00 0.02 0.02 75 1014.8
20260904195705 69 197 6.0 10.0 0.00 0.02 0.02 76 1014.8
20260904195204 69 202 6.0 10.0 0.00 0.02 0.02 77 1014.8
20260904194205 69 192 6.0 12.0 0.00 0.02 0.02 78 1014.9
20260904193204 69 202 6.0 10.0 0.00 0.02 0.02 77 1015.0
20260904192704 69 219 5.0 10.0 0.00 0.02 0.02 77 1015.0
20260904192204 69 223 6.0 11.0 0.00 0.02 0.02 77 1015.0
20260904191704 69 184 6.0 11.0 0.00 0.02 0.02 77 1015.0
20260904190704 69 215 5.0 10.0 0.00 0.02 0.02 78 1015.0